STARLINK-32009 (60104 NORAD) Tracking and Keplerian Element Data

This shows tracking and keplerian element data for the satellite.

Feedback or suggestion? Click here.




ElementValue
Catalog60104
NameSTARLINK-32009
Epoch Orbit1827
Epoch Day286.25911738
Epoch Year2024
RAAN262.2405
Inclination53.1599
Eccentricity0.0001092
Argument of Perigee63.7705
Mean Anonmoly296.3408
Mean Motion15.30157714
Decay Rate0.00027589
L11 60104U 24117P 24286.25911738 .00027589 00000+0 94139-3 0 9993
L22 60104 53.1599 262.2405 0001092 63.7705 296.3408 15.30157714 18270



Live tracking and technical data element details for STARLINK-32009 (NORAD 60104). STARLINK-32009 can be tracked NOW for your location showing map with azimuth and elevation plus other details from your city location.







IsCatalogInMostPopularTable: catalog: 60104, numindb: 8
Update: records affected: 1



GetName: 60104 STARLINK-32009

Hit Count: updated at: Thu, 23 Jan 2025 17:08:14 GMT